Date,TemperatureHighF,TemperatureAvgF,TemperatureLowF,DewpointHighF,DewpointAvgF,DewpointLowF,HumidityHigh,HumidityAvg,HumidityLow,PressureMaxIn,PressureMinIn,WindSpeedMaxMPH,WindSpeedAvgMPH,GustSpeedMaxMPH,PrecipitationSumIn
2013-1-1,81.7,65.7,52.5,77.7,65.2,52.2,99,99,86,30.06,29.88,16,4,21,0.02
2013-1-2,55.2,50.4,43.0,54.9,50.1,42.7,99,99,99,30.16,29.96,5,2,8,0.00
2013-1-3,51.6,42.2,36.7,46.2,40.7,34.9,99,95,77,30.32,30.15,5,2,8,0.01
2013-1-4,64.8,46.6,34.5,43.7,38.7,34.0,99,78,44,30.40,30.28,7,2,9,0.00
2013-1-5,54.1,47.8,41.9,45.1,41.4,38.0,91,79,63,30.33,30.21,6,2,8,0.00
2013-1-6,52.5,47.6,43.2,52.2,47.0,42.9,99,98,86,30.25,30.15,4,2,9,0.01
2013-1-7,72.0,51.5,37.9,52.6,45.1,37.7,99,83,47,30.29,30.17,7,2,10,0.00
2013-1-15,67.1,64.4,61.7,66.8,64.1,61.4,99,99,99,29.90,29.88,3,1,3,0.08
2013-1-16,60.6,49.2,42.4,60.3,48.9,42.2,99,99,99,30.01,29.89,4,2,7,0.02
2013-1-17,60.3,44.4,35.8,49.3,41.7,35.5,99,91,66,30.32,30.01,10,3,12,0.00
2013-1-18,69.1,47.9,36.3,51.8,42.8,36.1,99,86,53,30.48,30.32,8,2,11,0.00
2013-1-19,73.0,50.6,38.1,56.3,45.9,37.9,99,86,57,30.36,30.20,5,1,7,0.00
2013-1-20,78.1,55.1,38.1,61.5,50.1,37.9,99,87,52,30.24,30.08,5,1,6,0.00
2013-1-21,75.7,57.8,45.1,57.9,50.4,44.9,99,80,50,30.17,30.09,4,2,8,0.00
2013-1-22,72.9,53.2,40.5,51.4,41.5,36.7,91,69,43,30.33,30.17,7,2,11,0.00
2013-1-23,54.0,52.0,49.6,53.7,51.7,49.4,99,99,99,30.28,30.26,3,1,4,0.00
2013-1-24,49.1,48.3,47.5,48.8,48.1,47.2,99,99,99,30.27,30.25,2,0,2,0.00
2013-1-27,77.9,66.0,56.1,72.9,65.1,55.8,99,97,83,30.28,30.19,9,2,10,0.00
2013-1-28,80.6,65.7,54.9,77.3,65.1,54.6,99,98,84,30.25,30.11,12,3,12,0.00
2013-1-29,77.7,70.6,66.2,77.4,70.3,65.9,99,99,99,30.11,29.81,12,6,20,0.06
2013-1-30,72.7,62.4,43.2,72.4,60.6,38.3,99,94,82,30.08,29.72,19,8,21,0.12
2013-1-31,43.0,38.7,34.9,38.9,37.2,34.6,99,95,83,30.17,30.08,3,1,5,0.00
2013-2-1,53.6,44.8,40.1,40.3,37.8,33.4,85,77,60,30.32,30.28,2,0,3,0.00
2013-2-2,72.1,51.9,34.0,57.8,44.2,30.8,99,78,42,30.32,30.14,8,2,11,0.00
2013-2-3,79.3,59.5,42.6,57.8,49.1,39.2,99,76,33,30.22,30.09,6,1,9,0.00
2013-2-4,67.1,55.0,45.3,56.2,49.6,40.7,99,83,61,30.09,29.95,4,1,6,0.00
2013-2-5,72.5,59.4,53.6,72.2,59.1,53.3,99,99,99,30.00,29.91,4,1,7,0.02
2013-2-6,78.6,62.5,52.9,72.3,61.4,52.6,99,96,80,30.11,29.97,8,2,11,0.00
2013-2-7,85.8,66.2,54.7,74.8,63.5,54.4,99,92,67,29.98,29.76,15,3,17,0.18
2013-2-8,82.4,62.4,50.7,72.4,60.0,50.4,99,93,63,30.12,29.91,7,2,10,0.00
2013-2-9,73.0,57.9,45.0,63.7,55.0,44.7,99,91,66,30.22,30.07,11,3,11,0.00
2013-2-10,71.1,65.0,54.9,70.8,64.7,54.6,99,99,99,30.08,29.93,11,5,20,0.00
2013-2-11,72.9,63.2,56.8,72.6,62.9,56.6,99,99,99,30.08,29.94,10,3,13,0.06
2013-2-12,71.1,62.1,55.4,70.8,61.9,55.1,99,99,99,30.01,29.71,19,5,19,0.09
2013-2-13,69.1,53.3,42.8,68.8,53.1,42.5,99,99,99,30.03,29.72,6,2,9,0.81
2013-2-14,42.8,41.0,40.1,42.5,40.8,39.8,99,99,99,30.04,30.02,2,1,2,0.00
2013-2-17,66.4,46.6,28.4,38.0,34.0,26.4,99,68,36,30.35,30.23,8,2,10,0.00
2013-2-18,71.4,55.2,37.2,61.1,51.1,37.0,99,88,62,30.26,29.99,15,5,18,0.00
2013-2-19,77.4,62.3,45.1,66.2,53.0,35.3,99,76,38,30.17,29.92,15,4,101,0.84
2013-2-20,65.8,49.1,39.9,40.5,35.2,29.8,92,62,37,30.24,30.05,8,3,11,0.00
2013-2-21,67.8,57.5,43.5,66.3,53.3,36.9,99,86,70,30.05,29.84,12,5,17,0.00
2013-2-22,73.2,65.5,-4.4,72.7,66.6,61.8,99,99,95,29.94,29.81,49,4,49,0.06
2013-2-23,70.0,55.6,5.9,61.8,54.7,-16.2,99,97,35,29.91,29.72,51,2,51,0.05
2013-2-24,76.3,61.5,48.0,68.4,59.8,47.8,99,95,77,29.96,29.77,8,3,9,0.02
2013-2-25,58.6,58.0,57.4,58.4,57.7,57.1,99,99,99,29.79,29.69,8,4,8,0.13
2013-3-2,49.6,41.8,37.8,34.0,31.5,28.8,75,67,54,30.17,30.06,8,3,11,0.00
2013-3-3,63.9,46.1,28.9,35.9,30.5,25.6,93,59,35,30.20,30.09,7,2,11,0.00
2013-3-23,70.5,68.1,66.0,70.2,67.8,65.7,99,99,99,29.61,29.54,6,3,11,0.00
2013-3-24,88.0,70.7,47.3,76.3,62.2,37.4,99,77,50,29.90,29.51,12,4,15,0.00
2013-3-25,67.8,51.5,36.5,39.8,33.2,25.0,86,55,28,30.18,29.90,12,3,16,0.00
2013-3-26,41.7,39.6,36.9,31.7,30.1,29.0,75,69,64,30.22,30.19,4,1,8,0.00
2013-4-3,56.7,56.4,55.9,56.4,56.1,55.7,99,99,99,29.93,29.91,4,2,7,0.00
2013-4-4,106.0,62.3,31.5,71.7,60.3,5.8,99,96,35,29.92,29.81,6,2,9,1.71
2013-4-5,75.0,57.7,12.2,59.4,53.4,12.0,99,88,57,30.07,29.91,9,2,12,1.51
2013-4-6,81.3,61.6,43.3,62.3,53.1,43.1,99,79,36,30.13,30.05,10,2,11,0.01
2013-4-7,81.7,63.6,48.4,71.5,60.6,48.1,99,91,67,30.10,29.98,11,2,11,0.00
2013-4-8,85.5,71.9,58.8,80.5,69.6,58.5,99,93,77,30.04,29.94,12,3,15,0.00
2013-4-9,86.5,75.6,67.3,81.6,74.1,67.0,99,95,84,30.04,29.92,15,4,17,0.00
2013-4-10,67.8,66.3,65.1,67.5,66.0,64.8,99,99,99,29.98,29.91,2,1,5,0.00
2013-4-11,60.3,59.7,59.0,60.0,59.4,58.7,99,99,99,29.74,29.69,2,1,4,0.00
2013-4-12,59.0,55.3,51.6,58.7,55.0,51.3,99,99,99,29.86,29.74,4,2,7,0.00
2013-4-17,87.4,75.8,69.4,84.1,73.8,69.1,99,94,78,30.00,29.95,6,2,10,0.00
2013-4-18,82.0,74.4,65.3,81.7,74.1,65.0,99,99,99,29.96,29.81,10,4,13,0.00
2013-4-19,75.4,57.0,44.8,75.1,56.7,44.5,99,99,99,30.14,29.75,11,3,15,0.00
2013-4-20,75.6,57.4,39.4,54.4,46.9,39.1,99,73,42,30.22,30.07,8,2,14,0.00
2013-4-21,81.3,63.1,46.8,59.6,53.0,46.5,99,75,43,30.19,30.05,11,3,13,0.00
2013-4-22,86.2,67.5,53.4,71.8,63.6,53.1,99,89,61,30.10,29.99,8,3,10,0.00
2013-4-23,84.6,70.7,59.2,75.1,68.0,58.9,99,92,72,30.08,29.99,10,3,15,0.00
2013-4-24,63.1,62.5,62.1,62.9,62.2,61.8,99,99,99,30.00,29.98,0,0,0,0.00
2013-4-27,59.9,59.9,59.9,59.6,59.6,59.6,99,99,99,30.10,30.10,0,0,0,0.00
2013-5-2,76.8,67.1,-8.9,76.5,68.4,62.1,99,99,99,29.94,29.85,49,5,49,0.19
2013-5-3,76.8,65.2,48.7,76.5,64.9,48.5,99,99,96,29.92,29.75,9,2,10,0.00
2013-5-4,78.3,59.8,43.7,52.1,47.7,43.4,99,71,36,29.93,29.82,10,2,11,0.01
2013-5-5,77.2,61.7,48.9,68.1,51.9,45.4,99,75,44,29.96,29.81,13,3,13,0.00
2013-5-6,81.3,61.0,14.9,60.7,54.5,14.7,99,82,49,29.98,29.87,11,2,15,0.00
2013-5-7,86.0,65.6,52.7,68.8,60.9,52.4,99,87,58,30.00,29.91,10,1,10,0.00
2013-5-8,89.2,72.4,56.7,75.2,67.3,56.4,99,87,55,30.07,29.96,7,2,9,0.00
2013-5-9,89.1,73.1,58.8,79.1,68.8,58.5,99,88,60,30.10,30.00,8,2,10,0.00
2013-5-10,80.6,63.1,11.1,76.9,62.6,10.9,99,98,83,30.09,29.85,19,2,19,1.16
2013-5-11,81.9,58.6,0.0,81.5,69.6,61.8,99,84,93,30.01,29.89,4,1,10,1.05
2013-7-21,0.0,0.0,0.0,0.0,0.0,0.0,0,0,100,29.99,29.94,0,0,0,0.52
2013-7-22,0.0,0.0,0.0,0.0,0.0,0.0,0,0,100,30.02,29.93,0,0,0,0.52
2013-7-23,0.0,0.0,0.0,0.0,0.0,0.0,0,0,100,29.99,29.86,0,0,0,0.52
2013-7-24,0.0,0.0,0.0,0.0,0.0,0.0,0,0,100,29.90,29.81,0,0,0,0.52
2013-7-25,0.0,0.0,0.0,0.0,0.0,0.0,0,0,100,29.95,29.80,0,0,0,0.52
2013-7-26,0.0,0.0,0.0,0.0,0.0,0.0,0,0,100,29.99,29.90,0,0,0,0.52
2013-7-27,0.0,0.0,0.0,0.0,0.0,0.0,0,0,100,29.93,29.87,0,0,0,0.52
2013-9-19,79.5,78.2,76.3,75.7,72.8,67.7,97,84,68,29.95,29.93,3,1,3,0.00
2013-9-20,91.6,81.3,73.4,83.4,76.0,56.1,99,87,42,29.95,29.77,9,2,12,0.11
2013-9-21,80.8,77.2,71.8,79.9,74.3,56.7,99,93,47,29.77,29.64,4,1,10,1.02
2013-9-22,85.3,74.5,69.1,71.1,67.4,61.5,99,81,54,29.73,29.66,6,2,8,0.00
2013-9-23,93.4,79.2,68.4,75.9,69.4,62.4,94,75,43,29.81,29.71,8,2,8,0.00
2013-9-24,89.2,77.6,70.9,77.9,74.6,70.5,99,91,66,29.82,29.70,8,2,11,0.00
2013-9-25,97.7,79.2,71.4,74.7,70.4,59.0,99,80,31,29.75,29.68,6,1,6,0.00
2013-9-26,95.4,80.5,70.5,77.3,69.0,59.1,99,73,34,29.89,29.73,6,1,8,0.00
2013-9-27,93.2,77.5,69.6,69.1,63.6,54.4,91,67,31,29.97,29.87,7,2,10,0.66
2013-9-28,92.1,74.9,-13.7,64.5,59.9,-24.1,91,65,27,30.01,29.93,6,1,9,0.00
2013-9-29,85.5,74.7,64.6,66.1,62.2,57.7,89,68,44,29.99,29.88,4,1,8,0.00
2013-9-30,89.1,74.8,69.3,69.4,67.4,58.2,96,80,38,29.94,29.86,4,1,6,0.02
2013-10-1,92.5,78.2,69.1,72.0,67.7,60.1,99,76,38,29.99,29.90,10,2,10,0.01
2013-10-2,87.1,75.3,72.3,74.9,72.6,71.0,99,92,62,30.01,29.92,5,1,9,0.20
2013-10-3,89.4,78.9,72.0,75.8,73.3,71.7,99,85,59,29.99,29.89,10,3,15,0.31
2013-10-4,90.7,79.4,71.8,77.4,73.9,69.8,99,86,53,29.99,29.92,8,2,12,0.01
2013-10-5,91.0,80.4,74.7,78.2,74.2,69.6,99,83,53,29.97,29.86,8,2,14,0.06
2013-10-6,85.8,74.2,67.6,75.3,72.9,66.8,99,96,68,29.86,29.71,10,1,11,1.02
2013-10-7,82.8,69.4,61.5,66.6,53.1,19.3,97,61,19,29.94,29.79,100,4,100,0.00
2013-10-8,90.1,68.9,54.3,58.2,52.1,40.2,90,62,22,29.95,29.88,4,1,8,0.00
2013-10-9,85.5,72.6,64.8,67.7,64.1,57.5,95,76,55,30.03,29.91,7,2,13,0.00
2013-10-10,89.8,74.2,66.4,68.2,65.4,60.1,97,78,40,30.01,29.93,4,1,27,0.00
2013-10-11,90.7,75.2,64.6,70.4,64.9,56.8,99,76,35,30.00,29.89,7,1,8,0.00
2013-10-12,90.9,75.6,65.3,74.0,66.6,35.7,99,78,19,30.01,29.92,6,1,13,0.38
2013-10-13,93.0,77.9,67.6,71.3,65.2,55.8,99,70,32,30.09,29.99,6,1,8,0.00
2013-10-14,91.6,75.8,66.9,67.7,62.8,52.8,92,70,30,30.05,29.94,8,1,8,0.00
2013-10-15,89.4,72.1,-20.2,67.2,62.9,-29.5,99,76,38,29.99,29.89,5,1,7,1.71
2013-10-16,87.4,74.3,43.2,68.2,65.3,42.9,99,77,50,29.95,29.85,49,2,49,0.00
2013-10-17,89.2,76.7,67.1,75.6,68.9,63.4,98,79,49,29.89,29.82,7,2,11,0.06
2013-10-18,86.4,71.4,62.8,62.5,58.6,50.4,92,68,32,29.96,29.84,6,2,9,0.00
2013-10-19,68.5,64.1,58.5,64.8,60.1,56.4,95,87,72,29.96,29.84,3,1,5,0.37
2013-10-20,84.6,64.5,54.1,57.9,55.2,48.8,98,77,33,30.00,29.90,4,1,8,0.00
2013-10-21,79.2,65.6,58.3,61.9,57.8,54.9,92,78,47,30.01,29.90,5,1,6,0.00
2013-10-22,89.6,71.4,62.2,62.4,56.2,29.0,95,66,15,29.91,29.80,4,1,8,0.00
2013-10-23,81.5,65.1,52.3,55.6,43.5,20.7,89,55,15,30.06,29.89,5,1,10,0.00
2013-10-24,84.0,63.1,47.1,53.6,43.8,30.2,93,59,18,30.17,30.05,6,1,8,0.00
2013-10-25,74.8,60.1,50.4,53.3,40.0,22.9,86,54,18,30.33,30.14,8,3,16,0.00
2013-10-26,84.0,58.3,43.2,46.1,33.1,9.1,83,52,10,30.25,30.11,6,1,8,0.00
2013-10-27,79.5,62.1,46.6,58.3,49.1,33.0,93,69,23,30.12,30.01,5,1,9,0.00
2013-10-28,84.4,68.2,56.1,63.1,58.1,54.9,99,76,39,30.15,30.03,8,2,10,0.00
2013-10-29,82.8,68.8,59.0,65.7,60.3,57.1,99,79,44,30.21,30.11,8,2,11,0.00
2013-10-30,82.4,70.1,60.4,68.1,64.5,60.2,99,85,56,30.15,30.00,6,2,10,0.00
2013-10-31,82.8,75.6,68.5,73.1,68.6,65.9,96,80,62,30.00,29.77,13,4,17,0.05
2013-11-1,87.1,71.5,57.7,73.2,63.1,49.5,98,79,31,29.84,29.70,10,2,11,0.06
2013-11-2,84.2,65.7,52.9,52.9,44.7,31.4,90,56,19,30.06,29.83,5,1,8,0.00
2013-11-3,76.8,57.9,45.9,45.7,40.1,25.4,87,59,19,30.17,30.06,8,2,11,0.00
2013-11-4,77.7,63.5,50.9,54.5,47.8,42.3,80,60,36,30.22,30.11,11,3,15,0.00
2013-11-5,79.0,66.7,58.3,60.0,53.0,46.8,75,63,44,30.22,30.08,9,4,11,0.00
2013-11-6,78.1,68.9,60.1,66.8,61.1,51.9,92,77,64,30.10,30.00,9,2,11,0.00
2013-11-7,68.9,61.7,50.2,68.6,52.7,34.6,99,75,41,30.20,29.94,7,2,12,0.21
2013-11-8,73.4,55.7,44.2,39.5,30.3,13.2,73,45,14,30.27,30.12,9,3,15,0.00
2013-11-9,80.6,60.8,46.4,54.7,47.5,39.7,88,65,38,30.20,30.10,7,1,8,0.00
2013-11-10,82.2,64.9,55.9,54.4,51.4,43.1,86,66,30,30.21,30.10,7,2,11,0.00
2013-11-11,86.7,64.2,52.0,52.0,44.0,22.3,92,58,13,30.18,30.06,6,1,6,0.00
2013-11-12,77.5,58.6,41.9,50.1,42.1,18.9,94,60,32,30.38,30.10,9,3,16,0.00
2013-11-13,59.9,47.0,36.9,27.8,14.8,-6.1,67,35,10,30.45,30.35,14,3,15,0.00
2013-11-14,72.9,53.0,36.1,47.1,34.9,17.9,71,54,29,30.36,30.11,8,3,10,0.00
2013-11-15,70.5,61.3,56.7,67.2,57.6,45.7,99,88,63,30.10,29.94,6,2,8,0.61
2013-11-16,71.1,66.7,62.4,67.6,65.1,62.1,99,95,88,30.04,29.93,6,3,9,0.00
2013-11-17,82.8,73.4,68.0,74.2,71.0,67.0,99,93,71,29.93,29.84,8,3,14,0.05
2013-11-18,76.6,68.3,57.7,74.2,60.1,35.9,99,78,43,30.01,29.87,7,2,13,0.11
2013-11-19,72.1,56.8,48.6,39.2,34.3,24.1,70,47,20,30.09,29.96,8,3,12,0.00
2013-11-20,79.2,58.4,43.7,56.0,45.4,32.0,99,66,33,30.09,29.98,6,2,7,0.00
2013-11-21,72.1,62.5,56.1,61.6,57.3,52.9,93,84,64,30.19,30.09,8,3,12,0.00
2013-11-22,82.0,69.8,61.3,68.4,64.6,60.3,99,85,61,30.16,30.06,5,2,9,0.00
2013-11-25,58.5,58.2,57.9,57.6,57.2,56.5,97,96,95,29.86,29.83,0,0,0,0.18
2013-11-26,66.2,52.4,43.9,65.9,50.5,42.5,99,93,82,29.86,29.64,0,0,0,1.00
2013-11-27,56.8,43.1,30.9,42.5,28.6,15.2,96,63,23,30.33,29.86,0,0,0,0.07
2013-11-28,56.5,38.3,27.0,29.9,22.0,5.8,86,60,16,30.42,30.30,0,0,0,0.01
2013-11-29,70.9,45.4,28.9,32.4,21.6,-1.5,87,54,10,30.48,30.35,0,0,0,0.00
2013-11-30,77.2,51.3,35.6,42.2,34.9,28.5,96,62,21,30.39,30.20,0,0,0,0.00
2013-12-1,79.2,55.6,39.9,49.5,43.8,33.2,99,73,24,30.22,29.96,0,0,0,0.00
2013-12-2,78.4,61.0,47.3,55.7,50.4,41.1,98,74,30,29.95,29.73,0,0,0,0.00
2013-12-3,78.6,67.4,54.7,66.2,62.6,53.3,99,86,62,29.80,29.70,0,0,0,0.01
2013-12-4,81.5,72.4,66.9,72.8,69.0,66.0,99,90,66,29.91,29.78,0,0,0,0.00
2013-12-5,80.2,75.8,73.4,73.6,72.9,72.1,99,91,77,29.96,29.88,0,0,0,0.00
2013-12-6,83.1,73.0,52.9,73.2,69.4,52.1,98,89,71,30.09,29.89,0,0,0,0.45
2013-12-7,52.5,44.2,41.9,51.7,42.7,40.4,98,94,91,30.24,30.09,0,0,0,0.04
2013-12-8,71.1,56.8,43.5,68.6,55.5,43.3,99,96,77,30.16,29.97,0,0,0,0.02
2013-12-9,77.5,65.7,58.3,70.0,60.1,54.7,99,84,48,30.07,29.96,0,0,0,0.00
2013-12-10,60.6,47.8,38.7,58.3,41.5,34.3,96,81,47,30.30,29.96,0,0,0,0.20
2013-12-11,70.2,56.2,36.9,33.5,29.3,22.8,84,43,20,30.33,30.24,0,0,0,0.00
2013-12-18,44.4,42.8,41.0,39.9,38.6,37.1,95,85,78,30.23,30.19,0,0,0,0.00
2013-12-19,42.4,41.8,40.8,41.7,40.9,39.8,97,97,96,30.18,30.17,0,0,0,0.00
2013-12-22,67.3,56.5,54.0,64.9,56.1,53.7,99,99,92,30.06,29.82,0,0,0,3.63
2013-12-23,54.9,48.2,37.8,54.6,44.7,31.2,99,88,75,30.35,30.02,0,0,0,0.01
2013-12-24,60.8,41.8,31.3,31.2,26.7,16.2,87,62,21,30.44,30.31,0,0,0,0.00
2013-12-25,44.6,31.8,28.8,27.1,25.8,23.2,88,79,44,30.34,30.30,0,0,0,0.00
2013-12-26,59.2,49.9,43.5,38.2,33.1,27.5,80,56,33,30.27,30.20,0,0,0,0.00
2013-12-27,69.1,52.8,43.7,34.2,30.2,19.3,66,46,19,30.33,30.22,0,0,0,0.00
2013-12-28,53.1,47.5,45.7,47.8,45.4,34.6,99,94,51,30.20,29.87,0,0,0,1.95
2013-12-29,62.6,50.0,41.4,50.1,46.3,41.0,99,89,56,30.06,29.85,0,0,0,0.00
2013-12-30,61.5,50.0,40.5,50.9,46.1,40.2,99,88,60,30.24,30.04,0,0,0,0.00
2013-12-31,50.7,45.5,43.0,47.6,41.0,37.9,93,84,75,30.36,30.22,0,0,0,0.01
2014-1-1,63.3,51.9,43.2,55.5,49.1,41.6,99,91,75,30.27,29.99,0,0,0,0.09
2014-1-2,61.5,51.9,35.2,59.9,45.1,25.6,99,80,48,30.25,29.84,0,0,0,0.13